Select another period ( hide this area )

Units Period Custom range Directly to
Metric English Both
Daily Weekly Monthly Yearly
use both date-selectors for a custom range
previous Day
With this date
Daily Summary for Friday Jul 12 2024
Time Temp. ( °C ) Dew pt. ( °C ) Wind ( km/h ) From Gust ( km/h ) Pressure ( hPa ) Humid.( % ) Rainrate ( cm )
High16,3 14,6 13,0 WNW ( 204/573 ) 18,0 1019,0 95 4,32
Average15,1 13,5 2,1 Calm #88/278 4,4 1015,0 90 3,00
Low13,8 12,7 -   0,0 1012,5 82 -
Daily Tabular details for Friday Jul 12 2024
Time Temp. ( °C ) Dew pt. ( °C ) Wind ( km/h ) From Gust ( km/h ) Pressure ( hPa ) Humid.( % ) Rainrate ( cm )
00:04 15,3 13,5   Calm   1018,6 89 -
00:09 15,3 13,5   Calm   1018,6 89 -
00:14 15,3 13,6   Calm   1018,6 90 -
00:19 15,2 13,6   Calm   1018,6 90 -
00:24 15,2 13,6   Calm   1018,6 90 -
00:29 15,2 13,7   Calm   1018,6 91 -
00:34 15,2 13,7   Calm   1018,6 91 -
00:39 15,3 13,8   Calm   1019,0 91 -
00:44 15,3 13,8   Calm   1018,6 91 -
00:49 15,3 13,8   Calm   1018,6 91 -
00:54 15,3 13,9   Calm   1018,6 91 -
00:59 15,3 13,9   Calm   1018,6 92 -
01:04 15,4 14,1   Calm   1018,6 92 -
01:09 15,4 14,1   Calm   1018,6 92 -
01:14 15,5 14,2   Calm   1018,6 92 -
01:19 15,5 14,2   Calm   1018,6 92 -
01:24 15,6 14,2   Calm   1018,6 92 -
01:29 15,7 14,4   Calm   1018,3 92 -
01:34 15,8 14,6   Calm   1018,3 92 -
01:39 15,9 14,6   Calm   1018,3 92 -
01:44 16,0 14,6   Calm   1018,3 92 -
01:49 16,0 14,6   Calm 3,0 1018,3 91 -
01:54 16,1 14,6 1,0 NW 3,0 1018,3 91 -
01:59 16,2 14,6   Calm 1,0 1018,3 90 -
02:04 16,2 14,5 3,0 ENE 5,0 1018,3 90 -
02:09 16,3 14,5 5,0 ENE 5,0 1018,0 90 -
02:14 16,3 14,4 1,0 ENE 3,0 1018,0 89 -
02:19 16,3 14,3   Calm 1,0 1018,0 88 -
02:24 16,3 14,3 5,0 ENE 5,0 1018,0 88 -
02:29 16,3 14,3 3,0 East 3,0 1018,0 88 -
02:34 16,3 14,2 3,0 East 5,0 1018,0 87 -
02:39 16,2 14,1 5,0 ENE 6,0 1018,0 88 -
02:44 16,2 14,2 6,0 ENE 6,0 1018,0 88 -
02:49 16,1 14,1 1,0 ENE 6,0 1017,6 88 -
02:54 16,1 14,1 3,0 NE 3,0 1017,6 88 -
02:59 16,0 14,1 3,0 ENE 5,0 1017,6 88 -
03:04 15,9 14,0 3,0 ENE 3,0 1017,6 89 -
03:09 15,9 14,0 1,0 ENE 3,0 1017,6 89 -
03:14 15,8 14,0 3,0 ENE 8,0 1018,0 89 -
03:19 15,8 14,0 3,0 East 8,0 1017,6 89 -
03:24 15,7 13,9 3,0 East 5,0 1017,6 89 -
03:29 15,7 13,9 3,0 East 5,0 1017,6 90 -
03:34 15,6 13,9 1,0 ENE 6,0 1017,6 90 -
03:39 15,6 13,9   Calm 3,0 1017,6 90 -
03:44 15,6 13,9   Calm   1017,6 90 -
03:49 15,6 13,9   Calm   1017,6 90 -
03:54 15,6 13,8   Calm   1017,3 90 -
03:59 15,6 13,8   Calm 1,0 1017,3 90 -
04:04 15,4 13,8   Calm 1,0 1017,3 90 -
04:09 15,4 13,8 1,0 ENE 3,0 1017,6 90 -
04:14 15,4 13,7 3,0 ENE 3,0 1017,3 90 -
04:19 15,3 13,7   Calm 1,0 1017,3 90 -
04:24 15,3 13,7   Calm   1017,3 90 -
04:29 15,3 13,7   Calm   1016,9 90 -
04:34 15,2 13,6   Calm   1016,9 90 -
04:39 15,2 13,6   Calm   1016,9 90 -
04:44 15,1 13,6   Calm   1016,9 90 -
04:49 15,1 13,6   Calm   1016,9 90 -
04:54 15,1 13,5   Calm   1016,9 90 -
04:59 15,0 13,4   Calm   1016,6 90 -
05:04 14,9 13,4   Calm   1016,9 90 -
05:09 14,9 13,3   Calm   1016,9 91 -
05:14 14,8 13,3   Calm   1016,9 91 -
05:19 14,8 13,3   Calm   1016,9 91 -
05:24 14,8 13,3   Calm   1016,9 91 -
05:29 14,8 13,4   Calm   1016,9 91 -
05:34 14,8 13,4   Calm   1016,9 91 -
05:39 14,8 13,4   Calm   1016,9 92 -
05:44 14,8 13,4   Calm   1016,9 91 -
05:49 14,9 13,4   Calm   1016,6 91 -
05:54 14,9 13,4   Calm   1016,6 91 -
05:59 14,9 13,5   Calm   1016,6 91 -
06:04 15,1 13,6   Calm   1016,6 91 -
06:09 15,1 13,6   Calm   1016,3 91 -
06:14 15,2 13,6   Calm   1016,3 91 -
06:19 15,2 13,6   Calm   1016,3 90 -
06:24 15,2 13,6   Calm   1016,3 90 -
06:29 15,2 13,6   Calm   1016,3 90 -
06:34 15,2 13,6   Calm   1016,3 90 -
06:39 15,2 13,6   Calm   1016,3 90 -
06:44 15,2 13,5   Calm   1016,3 90 -
06:49 15,3 13,6   Calm   1016,3 90 -
06:54 15,3 13,6   Calm   1016,3 89 -
06:59 15,3 13,6   Calm   1016,3 90 -
07:04 15,3 13,6   Calm   1015,9 90 -
07:09 15,4 13,7   Calm   1015,9 90 -
07:14 15,4 13,7 3,0 NE 3,0 1015,9 90 -
07:19 15,4 13,6 5,0 ENE 8,0 1015,9 89 -
07:24 15,4 13,6 1,0 ENE 8,0 1016,3 89 -
07:29 15,4 13,4 5,0 East 5,0 1016,3 88 -
07:34 15,5 13,4 3,0 ENE 6,0 1016,3 88 -
07:39 15,6 13,6   Calm 5,0 1015,9 88 -
07:44 15,6 13,6 1,0 ENE 1,0 1015,9 88 -
07:49 15,7 13,6 1,0 WNW 6,0 1015,9 88 -
07:54 15,7 13,6 6,0 NE 8,0 1015,9 87 -
07:59 15,8 13,6 1,0 WNW 8,0 1015,9 87 -
08:04 15,8 13,6 3,0 ENE 5,0 1015,6 87 -
08:09 15,8 13,6 3,0 NNE 5,0 1015,9 87 -
08:14 15,9 13,4 1,0 NNE 3,0 1015,9 86 -
08:19 15,9 13,4 1,0 ENE 5,0 1015,6 85 -
08:24 15,9 13,4 3,0 ENE 5,0 1015,6 85 -
08:29 15,9 13,4 3,0 NE 5,0 1015,6 85 -
08:34 15,9 13,4 1,0 NE 5,0 1015,6 85 -
08:39 15,9 13,4   Calm 1,0 1015,6 85 -
08:44 15,9 13,4   Calm   1015,6 85 -
08:49 15,9 13,4   Calm   1015,6 85 -
08:54 16,0 13,4   Calm   1015,6 85 -
08:59 16,0 13,5 1,0 NW 1,0 1015,6 85 -
09:04 16,0 13,5 3,0 WNW 5,0 1015,2 85 -
09:09 16,0 13,5 5,0 West 6,0 1015,2 85 -
09:14 15,9 13,3 3,0 SSE 6,0 1015,2 85 -
09:19 16,0 13,4 5,0 WNW 5,0 1015,2 85 -
09:24 16,0 13,4 1,0 NW 3,0 1014,9 85 -
09:29 16,0 13,4 3,0 WNW 5,0 1014,9 85 -
09:34 16,0 13,4   Calm 6,0 1014,9 85 -
09:39 16,1 13,4 5,0 NW 5,0 1014,6 85 -
09:44 16,1 13,4   Calm 5,0 1014,6 84 -
09:49 16,1 13,3 3,0 WNW 5,0 1014,6 84 -
09:54 16,2 13,3 5,0 NW 8,0 1014,6 84 -
09:59 16,2 13,4 3,0 NW 8,0 1014,6 83 -
10:04 16,3 13,3 3,0 WNW 6,0 1014,6 83 -
10:09 16,3 13,3 3,0 WNW 6,0 1014,6 83 -
10:14 16,3 13,3 3,0 West 5,0 1014,6 83 -
10:19 16,3 13,3 6,0 WNW 8,0 1014,6 83 -
10:24 16,3 13,3 5,0 NW 6,0 1014,6 82 -
10:29 16,3 13,4 5,0 WNW 5,0 1014,6 83 -
10:34 16,2 13,4 6,0 WNW 6,0 1014,6 83 -
10:39 16,2 13,6 6,0 WNW 6,0 1014,2 85 -
10:44 16,2 13,7 3,0 WNW 6,0 1014,2 86 -
10:49 16,0 13,7 3,0 WNW 5,0 1014,2 87 -
10:54 15,8 13,6 3,0 NW 5,0 1014,2 87 -
10:59 15,7 13,6 1,0 NW 3,0 1014,2 88 0,25
11:04 15,6 13,7 3,0 NW 3,0 1014,2 89 0,25
11:09 15,6 13,8 3,0 WSW 5,0 1014,2 89 0,25
11:14 15,4 13,7 1,0 WNW 5,0 1014,2 89 0,25
11:19 15,3 13,7 1,0 WNW 3,0 1014,6 90 0,51
11:24 15,3 13,6   Calm 3,0 1014,6 90 0,51
11:29 15,3 13,6 3,0 NW 3,0 1014,6 90 0,51
11:34 15,2 13,5 1,0 WNW 3,0 1014,6 90 0,51
11:39 15,2 13,6 1,0 WNW 1,0 1014,6 90 0,51
11:44 15,2 13,6 3,0 WNW 5,0 1014,6 90 0,51
11:49 15,1 13,6 1,0 WNW 5,0 1014,6 91 0,51
11:54 15,1 13,6 1,0 WNW 5,0 1014,6 91 0,51
11:59 15,1 13,5 1,0 WNW 5,0 1014,6 91 0,51
12:04 15,1 13,5 5,0 NW 5,0 1014,2 91 0,51
12:09 15,0 13,5 1,0 WNW 3,0 1014,2 91 0,51
12:14 14,9 13,4 1,0 North 5,0 1014,2 91 0,51
12:19 14,8 13,4 1,0 West 5,0 1014,2 91 0,76
12:24 14,8 13,3   Calm 3,0 1014,2 91 0,51
12:29 14,7 13,3 3,0 NW 6,0 1014,2 91 0,76
12:34 14,7 13,2 3,0 WNW 5,0 1014,2 91 0,76
12:39 14,6 13,2 1,0 WNW 5,0 1013,9 92 1,02
12:44 14,6 13,3 3,0 WNW 3,0 1013,9 92 1,27
12:49 14,5 13,2 1,0 WNW 5,0 1013,9 92 1,27
12:54 14,5 13,2 5,0 WNW 5,0 1013,9 92 1,27
12:59 14,4 13,2 1,0 WNW 6,0 1013,6 92 1,52
13:04 14,4 13,2 1,0 NW 3,0 1013,6 92 1,52
13:09 14,4 13,3 1,0 WNW 5,0 1013,9 93 1,52
13:14 14,4 13,3 1,0 WNW 5,0 1013,6 93 1,52
13:19 14,4 13,2   Calm 5,0 1013,9 93 1,52
13:24 14,4 13,2 1,0 West 3,0 1013,9 93 1,52
13:29 14,3 13,1 1,0 NW 6,0 1013,9 93 1,52
13:34 14,2 13,0 3,0 WNW 5,0 1013,9 93 1,52
13:39 14,2 12,9 3,0 NW 8,0 1013,9 92 1,52
13:44 14,1 12,9 1,0 WNW 6,0 1013,9 93 1,78
13:49 14,1 12,9 1,0 NW 6,0 1013,6 93 2,03
13:54 14,1 12,9 6,0 NNW 6,0 1013,6 93 2,03
13:59 14,1 12,9 3,0 WNW 5,0 1013,9 93 2,29
14:04 13,9 12,8 1,0 SW 3,0 1013,9 93 2,29
14:09 13,9 12,8 1,0 West 5,0 1013,6 93 2,29
14:14 13,9 12,8 3,0 WNW 3,0 1013,9 93 2,29
14:19 13,9 12,8   Calm 3,0 1013,9 93 2,29
14:24 13,9 12,8 3,0 NW 3,0 1013,9 93 2,29
14:29 13,8 12,7 3,0 WNW 8,0 1013,9 93 2,54
14:34 13,8 12,7 3,0 WNW 3,0 1013,9 93 2,54
14:39 13,8 12,7 5,0 WNW 5,0 1013,6 94 2,79
14:44 13,9 12,9 1,0 NW 5,0 1013,6 94 2,79
14:49 13,9 12,9 1,0 NW 5,0 1013,6 94 3,05
14:54 13,9 13,0 3,0 NW 5,0 1013,6 94 3,30
14:59 14,0 13,1 6,0 NW 11,0 1013,2 94 3,30
15:04 14,1 13,1 3,0 WNW 6,0 1013,2 94 3,81
15:09 14,0 13,1 6,0 WNW 11,0 1013,2 94 4,06
15:14 14,0 13,1 3,0 WNW 6,0 1013,2 94 4,32
15:19 14,0 13,1 6,0 NW 8,0 1012,9 94 4,32
15:24 14,1 13,2 5,0 NW 8,0 1013,2 94 4,32
15:29 14,1 13,2 5,0 WNW 6,0 1013,2 94 4,06
15:34 14,0 13,1 3,0 NNW 6,0 1013,2 94 3,81
15:39 14,0 13,1 3,0 WNW 8,0 1013,2 94 3,30
15:44 13,9 13,1 3,0 NW 8,0 1013,2 94 3,05
15:49 13,9 13,1 5,0 WNW 8,0 1013,2 94 2,54
15:54 13,9 13,1 5,0 NW 10,0 1013,2 94 2,29
15:59 13,9 13,0 1,0 WNW 6,0 1013,2 94 1,52
16:04 13,9 13,1   Calm 14,0 1013,2 95 1,27
16:09 13,9 13,1 1,0 WNW 6,0 1013,2 94 1,02
16:14 14,1 13,2 1,0 NW 11,0 1013,2 95 0,51
16:19 14,1 13,2 3,0 WNW 10,0 1013,2 94 0,51
16:24 14,1 13,2 3,0 West 10,0 1012,9 94 0,25
16:29 14,1 13,2 5,0 WNW 10,0 1013,2 94 0,25
16:34 14,1 13,2 1,0 WNW 8,0 1013,2 94 0,51
16:39 14,2 13,3   Calm 10,0 1013,2 94 0,51
16:44 14,2 13,3 3,0 WNW 8,0 1013,2 94 0,51
16:49 14,3 13,4 6,0 NW 6,0 1013,2 94 0,51
16:54 14,4 13,4 3,0 NNW 8,0 1013,2 94 0,51
16:59 14,4 13,3 5,0 NW 6,0 1013,2 94 0,51
17:04 14,4 13,4 11,0 WNW 11,0 1013,2 94 0,51
17:09 14,6 13,6 1,0 NW 8,0 1013,2 94 0,25
17:14 14,7 13,6 1,0 WNW 11,0 1013,2 94 0,25
17:19 14,8 13,7 1,0 East 11,0 1013,2 93 0,25
17:24 14,8 13,6 6,0 WNW 6,0 1013,2 92 0,25
17:29 14,9 13,7 5,0 NW 13,0 1013,2 92 0,25
17:34 14,9 13,6 8,0 NW 14,0 1013,6 92 -
17:39 14,9 13,6 5,0 NW 8,0 1013,2 92 -
17:44 14,9 13,4 13,0 WNW 13,0 1013,2 91 -
17:49 14,8 13,3 3,0 WNW 18,0 1013,2 91 -
17:54 14,8 13,3 5,0 NW 11,0 1013,2 91 -
17:59 14,7 13,1 1,0 West 10,0 1013,6 90 -
18:04 14,7 13,2 3,0 West 8,0 1013,6 91 -
18:09 14,7 13,3 5,0 WNW 6,0 1013,6 91 -
18:14 14,8 13,3 1,0 WNW 10,0 1013,2 91 -
18:19 14,8 13,3 1,0 NNW 5,0 1013,2 91 -
18:24 14,8 13,3 3,0 NW 6,0 1013,2 90 -
18:29 14,9 13,3 1,0 NE 11,0 1013,2 90 -
18:34 15,1 13,5 3,0 NW 5,0 1013,2 90 -
18:39 15,1 13,5 5,0 NW 11,0 1013,2 90 -
18:44 15,1 13,5 3,0 WNW 6,0 1013,2 90 -
18:49 15,1 13,4 13,0 NW 13,0 1013,2 89 -
18:54 15,1 13,3   Calm 8,0 1013,2 89 -
18:59 15,2 13,4 5,0 WNW 6,0 1013,2 89 -
19:04 15,1 13,2 5,0 WNW 8,0 1013,2 89 -
19:09 15,1 13,2 5,0 NW 8,0 1013,2 89 -
19:14 15,0 13,2 6,0 NW 8,0 1013,2 89 -
19:19 15,1 13,2 5,0 NW 8,0 1013,2 88 -
19:24 15,1 13,2 3,0 NW 5,0 1013,2 89 -
19:29 15,1 13,2 1,0 WNW 5,0 1013,2 89 -
19:34 15,2 13,3 3,0 NW 3,0 1013,2 89 -
19:39 15,1 13,2 3,0 NW 6,0 1013,2 89 -
19:44 15,1 13,2 1,0 NW 5,0 1013,2 89 -
19:49 15,2 13,3 5,0 NW 5,0 1013,2 89 -
19:54 15,2 13,3 6,0 West 6,0 1012,9 89 -
19:59 15,2 13,3 6,0 North 6,0 1012,9 89 -
20:04 15,1 13,3   Calm 5,0 1012,9 89 -
20:09 15,1 13,4 3,0 WNW 6,0 1012,9 89 -
20:14 15,1 13,4 3,0 West 8,0 1012,9 89 -
20:19 15,1 13,3 3,0 WNW 6,0 1012,9 89 -
20:24 15,0 13,3 3,0 West 6,0 1012,9 90 -
20:29 15,0 13,3 1,0 NNW 8,0 1012,9 90 -
20:34 15,0 13,3 1,0 NW 8,0 1012,9 90 -
20:39 15,0 13,3 1,0 NW 5,0 1012,9 90 -
20:44 15,0 13,4   Calm 3,0 1012,9 90 -
20:49 15,0 13,4   Calm 1,0 1012,9 90 -
20:54 15,0 13,4 5,0 NW 5,0 1012,9 90 -
20:59 14,9 13,3 3,0 West 6,0 1012,9 90 -
21:04 14,8 13,2   Calm 3,0 1012,9 90 -
21:09 14,8 13,3 3,0 NNW 5,0 1012,9 90 -
21:14 14,8 13,3 1,0 WNW 3,0 1012,9 91 -
21:19 14,8 13,3 3,0 NW 6,0 1012,9 91 -
21:24 14,8 13,3 1,0 NW 5,0 1012,9 91 -
21:29 14,8 13,3 1,0 NNW 5,0 1012,9 91 -
21:34 14,8 13,4 5,0 WNW 5,0 1012,9 91 -
21:39 14,8 13,4 1,0 NW 5,0 1012,9 91 -
21:44 14,8 13,4   Calm 3,0 1012,9 91 -
21:49 14,8 13,4   Calm 1,0 1012,5 91 -
21:54 14,8 13,4 5,0 NW 6,0 1012,9 91 -
21:59 14,8 13,4 1,0 NE 3,0 1012,9 92 -
22:04 14,8 13,4 1,0 East 5,0 1012,9 92 -
22:09 14,8 13,4 3,0 NNW 5,0 1012,9 92 -
22:14 14,8 13,4 1,0 NW 5,0 1012,9 92 -
22:19 14,8 13,4 1,0 NW 6,0 1012,9 92 -
22:24 14,8 13,4 3,0 East 6,0 1012,9 92 -
22:29 14,7 13,4   Calm 3,0 1012,9 92 -
22:34 14,7 13,4 1,0 NW 1,0 1012,9 92 -
22:38 14,7 13,4   Calm 3,0 1012,9 92 -
22:44 14,7 13,5 1,0 NNW 3,0 1012,9 92 -
22:49 14,7 13,4 3,0 North 3,0 1012,9 92 -
22:54 14,7 13,4 1,0 NNW 6,0 1012,5 92 -
22:59 14,7 13,5 1,0 East 3,0 1012,5 93 -
23:04 14,7 13,4 1,0 NW 5,0 1012,5 93 -
23:09 14,7 13,5   Calm   1012,9 93 -
Daily Summary for Friday Jul 12 2024
Time Temp. ( °C ) Dew pt. ( °C ) Wind ( km/h ) From Gust ( km/h ) Pressure ( hPa ) Humid.( % ) Rainrate ( cm )
High16,3 14,6 13,0 WNW ( 204/573 ) 18,0 1019,0 95 4,32
Average15,1 13,5 2,1 Calm #88/278 4,4 1015,0 90 3,00
Low13,8 12,7 -   0,0 1012,5 82 -
Daily Tabular details for Friday Jul 12 2024
Time Temp. ( °C ) Dew pt. ( °C ) Wind ( km/h ) From Gust ( km/h ) Pressure ( hPa ) Humid.( % ) Rainrate ( cm )
00:04 15,3 13,5   Calm   1018,6 89 -
00:09 15,3 13,5   Calm   1018,6 89 -
00:14 15,3 13,6   Calm   1018,6 90 -
00:19 15,2 13,6   Calm   1018,6 90 -
00:24 15,2 13,6   Calm   1018,6 90 -
00:29 15,2 13,7   Calm   1018,6 91 -
00:34 15,2 13,7   Calm   1018,6 91 -
00:39 15,3 13,8   Calm   1019,0 91 -
00:44 15,3 13,8   Calm   1018,6 91 -
00:49 15,3 13,8   Calm   1018,6 91 -
00:54 15,3 13,9   Calm   1018,6 91 -
00:59 15,3 13,9   Calm   1018,6 92 -
01:04 15,4 14,1   Calm   1018,6 92 -
01:09 15,4 14,1   Calm   1018,6 92 -
01:14 15,5 14,2   Calm   1018,6 92 -
01:19 15,5 14,2   Calm   1018,6 92 -
01:24 15,6 14,2   Calm   1018,6 92 -
01:29 15,7 14,4   Calm   1018,3 92 -
01:34 15,8 14,6   Calm   1018,3 92 -
01:39 15,9 14,6   Calm   1018,3 92 -
01:44 16,0 14,6   Calm   1018,3 92 -
01:49 16,0 14,6   Calm 3,0 1018,3 91 -
01:54 16,1 14,6 1,0 NW 3,0 1018,3 91 -
01:59 16,2 14,6   Calm 1,0 1018,3 90 -
02:04 16,2 14,5 3,0 ENE 5,0 1018,3 90 -
02:09 16,3 14,5 5,0 ENE 5,0 1018,0 90 -
02:14 16,3 14,4 1,0 ENE 3,0 1018,0 89 -
02:19 16,3 14,3   Calm 1,0 1018,0 88 -
02:24 16,3 14,3 5,0 ENE 5,0 1018,0 88 -
02:29 16,3 14,3 3,0 East 3,0 1018,0 88 -
02:34 16,3 14,2 3,0 East 5,0 1018,0 87 -
02:39 16,2 14,1 5,0 ENE 6,0 1018,0 88 -
02:44 16,2 14,2 6,0 ENE 6,0 1018,0 88 -
02:49 16,1 14,1 1,0 ENE 6,0 1017,6 88 -
02:54 16,1 14,1 3,0 NE 3,0 1017,6 88 -
02:59 16,0 14,1 3,0 ENE 5,0 1017,6 88 -
03:04 15,9 14,0 3,0 ENE 3,0 1017,6 89 -
03:09 15,9 14,0 1,0 ENE 3,0 1017,6 89 -
03:14 15,8 14,0 3,0 ENE 8,0 1018,0 89 -
03:19 15,8 14,0 3,0 East 8,0 1017,6 89 -
03:24 15,7 13,9 3,0 East 5,0 1017,6 89 -
03:29 15,7 13,9 3,0 East 5,0 1017,6 90 -
03:34 15,6 13,9 1,0 ENE 6,0 1017,6 90 -
03:39 15,6 13,9   Calm 3,0 1017,6 90 -
03:44 15,6 13,9   Calm   1017,6 90 -
03:49 15,6 13,9   Calm   1017,6 90 -
03:54 15,6 13,8   Calm   1017,3 90 -
03:59 15,6 13,8   Calm 1,0 1017,3 90 -
04:04 15,4 13,8   Calm 1,0 1017,3 90 -
04:09 15,4 13,8 1,0 ENE 3,0 1017,6 90 -
04:14 15,4 13,7 3,0 ENE 3,0 1017,3 90 -
04:19 15,3 13,7   Calm 1,0 1017,3 90 -
04:24 15,3 13,7   Calm   1017,3 90 -
04:29 15,3 13,7   Calm   1016,9 90 -
04:34 15,2 13,6   Calm   1016,9 90 -
04:39 15,2 13,6   Calm   1016,9 90 -
04:44 15,1 13,6   Calm   1016,9 90 -
04:49 15,1 13,6   Calm   1016,9 90 -
04:54 15,1 13,5   Calm   1016,9 90 -
04:59 15,0 13,4   Calm   1016,6 90 -
05:04 14,9 13,4   Calm   1016,9 90 -
05:09 14,9 13,3   Calm   1016,9 91 -
05:14 14,8 13,3   Calm   1016,9 91 -
05:19 14,8 13,3   Calm   1016,9 91 -
05:24 14,8 13,3   Calm   1016,9 91 -
05:29 14,8 13,4   Calm   1016,9 91 -
05:34 14,8 13,4   Calm   1016,9 91 -
05:39 14,8 13,4   Calm   1016,9 92 -
05:44 14,8 13,4   Calm   1016,9 91 -
05:49 14,9 13,4   Calm   1016,6 91 -
05:54 14,9 13,4   Calm   1016,6 91 -
05:59 14,9 13,5   Calm   1016,6 91 -
06:04 15,1 13,6   Calm   1016,6 91 -
06:09 15,1 13,6   Calm   1016,3 91 -
06:14 15,2 13,6   Calm   1016,3 91 -
06:19 15,2 13,6   Calm   1016,3 90 -
06:24 15,2 13,6   Calm   1016,3 90 -
06:29 15,2 13,6   Calm   1016,3 90 -
06:34 15,2 13,6   Calm   1016,3 90 -
06:39 15,2 13,6   Calm   1016,3 90 -
06:44 15,2 13,5   Calm   1016,3 90 -
06:49 15,3 13,6   Calm   1016,3 90 -
06:54 15,3 13,6   Calm   1016,3 89 -
06:59 15,3 13,6   Calm   1016,3 90 -
07:04 15,3 13,6   Calm   1015,9 90 -
07:09 15,4 13,7   Calm   1015,9 90 -
07:14 15,4 13,7 3,0 NE 3,0 1015,9 90 -
07:19 15,4 13,6 5,0 ENE 8,0 1015,9 89 -
07:24 15,4 13,6 1,0 ENE 8,0 1016,3 89 -
07:29 15,4 13,4 5,0 East 5,0 1016,3 88 -
07:34 15,5 13,4 3,0 ENE 6,0 1016,3 88 -
07:39 15,6 13,6   Calm 5,0 1015,9 88 -
07:44 15,6 13,6 1,0 ENE 1,0 1015,9 88 -
07:49 15,7 13,6 1,0 WNW 6,0 1015,9 88 -
07:54 15,7 13,6 6,0 NE 8,0 1015,9 87 -
07:59 15,8 13,6 1,0 WNW 8,0 1015,9 87 -
08:04 15,8 13,6 3,0 ENE 5,0 1015,6 87 -
08:09 15,8 13,6 3,0 NNE 5,0 1015,9 87 -
08:14 15,9 13,4 1,0 NNE 3,0 1015,9 86 -
08:19 15,9 13,4 1,0 ENE 5,0 1015,6 85 -
08:24 15,9 13,4 3,0 ENE 5,0 1015,6 85 -
08:29 15,9 13,4 3,0 NE 5,0 1015,6 85 -
08:34 15,9 13,4 1,0 NE 5,0 1015,6 85 -
08:39 15,9 13,4   Calm 1,0 1015,6 85 -
08:44 15,9 13,4   Calm   1015,6 85 -
08:49 15,9 13,4   Calm   1015,6 85 -
08:54 16,0 13,4   Calm   1015,6 85 -
08:59 16,0 13,5 1,0 NW 1,0 1015,6 85 -
09:04 16,0 13,5 3,0 WNW 5,0 1015,2 85 -
09:09 16,0 13,5 5,0 West 6,0 1015,2 85 -
09:14 15,9 13,3 3,0 SSE 6,0 1015,2 85 -
09:19 16,0 13,4 5,0 WNW 5,0 1015,2 85 -
09:24 16,0 13,4 1,0 NW 3,0 1014,9 85 -
09:29 16,0 13,4 3,0 WNW 5,0 1014,9 85 -
09:34 16,0 13,4   Calm 6,0 1014,9 85 -
09:39 16,1 13,4 5,0 NW 5,0 1014,6 85 -
09:44 16,1 13,4   Calm 5,0 1014,6 84 -
09:49 16,1 13,3 3,0 WNW 5,0 1014,6 84 -
09:54 16,2 13,3 5,0 NW 8,0 1014,6 84 -
09:59 16,2 13,4 3,0 NW 8,0 1014,6 83 -
10:04 16,3 13,3 3,0 WNW 6,0 1014,6 83 -
10:09 16,3 13,3 3,0 WNW 6,0 1014,6 83 -
10:14 16,3 13,3 3,0 West 5,0 1014,6 83 -
10:19 16,3 13,3 6,0 WNW 8,0 1014,6 83 -
10:24 16,3 13,3 5,0 NW 6,0 1014,6 82 -
10:29 16,3 13,4 5,0 WNW 5,0 1014,6 83 -
10:34 16,2 13,4 6,0 WNW 6,0 1014,6 83 -
10:39 16,2 13,6 6,0 WNW 6,0 1014,2 85 -
10:44 16,2 13,7 3,0 WNW 6,0 1014,2 86 -
10:49 16,0 13,7 3,0 WNW 5,0 1014,2 87 -
10:54 15,8 13,6 3,0 NW 5,0 1014,2 87 -
10:59 15,7 13,6 1,0 NW 3,0 1014,2 88 0,25
11:04 15,6 13,7 3,0 NW 3,0 1014,2 89 0,25
11:09 15,6 13,8 3,0 WSW 5,0 1014,2 89 0,25
11:14 15,4 13,7 1,0 WNW 5,0 1014,2 89 0,25
11:19 15,3 13,7 1,0 WNW 3,0 1014,6 90 0,51
11:24 15,3 13,6   Calm 3,0 1014,6 90 0,51
11:29 15,3 13,6 3,0 NW 3,0 1014,6 90 0,51
11:34 15,2 13,5 1,0 WNW 3,0 1014,6 90 0,51
11:39 15,2 13,6 1,0 WNW 1,0 1014,6 90 0,51
11:44 15,2 13,6 3,0 WNW 5,0 1014,6 90 0,51
11:49 15,1 13,6 1,0 WNW 5,0 1014,6 91 0,51
11:54 15,1 13,6 1,0 WNW 5,0 1014,6 91 0,51
11:59 15,1 13,5 1,0 WNW 5,0 1014,6 91 0,51
12:04 15,1 13,5 5,0 NW 5,0 1014,2 91 0,51
12:09 15,0 13,5 1,0 WNW 3,0 1014,2 91 0,51
12:14 14,9 13,4 1,0 North 5,0 1014,2 91 0,51
12:19 14,8 13,4 1,0 West 5,0 1014,2 91 0,76
12:24 14,8 13,3   Calm 3,0 1014,2 91 0,51
12:29 14,7 13,3 3,0 NW 6,0 1014,2 91 0,76
12:34 14,7 13,2 3,0 WNW 5,0 1014,2 91 0,76
12:39 14,6 13,2 1,0 WNW 5,0 1013,9 92 1,02
12:44 14,6 13,3 3,0 WNW 3,0 1013,9 92 1,27
12:49 14,5 13,2 1,0 WNW 5,0 1013,9 92 1,27
12:54 14,5 13,2 5,0 WNW 5,0 1013,9 92 1,27
12:59 14,4 13,2 1,0 WNW 6,0 1013,6 92 1,52
13:04 14,4 13,2 1,0 NW 3,0 1013,6 92 1,52
13:09 14,4 13,3 1,0 WNW 5,0 1013,9 93 1,52
13:14 14,4 13,3 1,0 WNW 5,0 1013,6 93 1,52
13:19 14,4 13,2   Calm 5,0 1013,9 93 1,52
13:24 14,4 13,2 1,0 West 3,0 1013,9 93 1,52
13:29 14,3 13,1 1,0 NW 6,0 1013,9 93 1,52
13:34 14,2 13,0 3,0 WNW 5,0 1013,9 93 1,52
13:39 14,2 12,9 3,0 NW 8,0 1013,9 92 1,52
13:44 14,1 12,9 1,0 WNW 6,0 1013,9 93 1,78
13:49 14,1 12,9 1,0 NW 6,0 1013,6 93 2,03
13:54 14,1 12,9 6,0 NNW 6,0 1013,6 93 2,03
13:59 14,1 12,9 3,0 WNW 5,0 1013,9 93 2,29
14:04 13,9 12,8 1,0 SW 3,0 1013,9 93 2,29
14:09 13,9 12,8 1,0 West 5,0 1013,6 93 2,29
14:14 13,9 12,8 3,0 WNW 3,0 1013,9 93 2,29
14:19 13,9 12,8   Calm 3,0 1013,9 93 2,29
14:24 13,9 12,8 3,0 NW 3,0 1013,9 93 2,29
14:29 13,8 12,7 3,0 WNW 8,0 1013,9 93 2,54
14:34 13,8 12,7 3,0 WNW 3,0 1013,9 93 2,54
14:39 13,8 12,7 5,0 WNW 5,0 1013,6 94 2,79
14:44 13,9 12,9 1,0 NW 5,0 1013,6 94 2,79
14:49 13,9 12,9 1,0 NW 5,0 1013,6 94 3,05
14:54 13,9 13,0 3,0 NW 5,0 1013,6 94 3,30
14:59 14,0 13,1 6,0 NW 11,0 1013,2 94 3,30
15:04 14,1 13,1 3,0 WNW 6,0 1013,2 94 3,81
15:09 14,0 13,1 6,0 WNW 11,0 1013,2 94 4,06
15:14 14,0 13,1 3,0 WNW 6,0 1013,2 94 4,32
15:19 14,0 13,1 6,0 NW 8,0 1012,9 94 4,32
15:24 14,1 13,2 5,0 NW 8,0 1013,2 94 4,32
15:29 14,1 13,2 5,0 WNW 6,0 1013,2 94 4,06
15:34 14,0 13,1 3,0 NNW 6,0 1013,2 94 3,81
15:39 14,0 13,1 3,0 WNW 8,0 1013,2 94 3,30
15:44 13,9 13,1 3,0 NW 8,0 1013,2 94 3,05
15:49 13,9 13,1 5,0 WNW 8,0 1013,2 94 2,54
15:54 13,9 13,1 5,0 NW 10,0 1013,2 94 2,29
15:59 13,9 13,0 1,0 WNW 6,0 1013,2 94 1,52
16:04 13,9 13,1   Calm 14,0 1013,2 95 1,27
16:09 13,9 13,1 1,0 WNW 6,0 1013,2 94 1,02
16:14 14,1 13,2 1,0 NW 11,0 1013,2 95 0,51
16:19 14,1 13,2 3,0 WNW 10,0 1013,2 94 0,51
16:24 14,1 13,2 3,0 West 10,0 1012,9 94 0,25
16:29 14,1 13,2 5,0 WNW 10,0 1013,2 94 0,25
16:34 14,1 13,2 1,0 WNW 8,0 1013,2 94 0,51
16:39 14,2 13,3   Calm 10,0 1013,2 94 0,51
16:44 14,2 13,3 3,0 WNW 8,0 1013,2 94 0,51
16:49 14,3 13,4 6,0 NW 6,0 1013,2 94 0,51
16:54 14,4 13,4 3,0 NNW 8,0 1013,2 94 0,51
16:59 14,4 13,3 5,0 NW 6,0 1013,2 94 0,51
17:04 14,4 13,4 11,0 WNW 11,0 1013,2 94 0,51
17:09 14,6 13,6 1,0 NW 8,0 1013,2 94 0,25
17:14 14,7 13,6 1,0 WNW 11,0 1013,2 94 0,25
17:19 14,8 13,7 1,0 East 11,0 1013,2 93 0,25
17:24 14,8 13,6 6,0 WNW 6,0 1013,2 92 0,25
17:29 14,9 13,7 5,0 NW 13,0 1013,2 92 0,25
17:34 14,9 13,6 8,0 NW 14,0 1013,6 92 -
17:39 14,9 13,6 5,0 NW 8,0 1013,2 92 -
17:44 14,9 13,4 13,0 WNW 13,0 1013,2 91 -
17:49 14,8 13,3 3,0 WNW 18,0 1013,2 91 -
17:54 14,8 13,3 5,0 NW 11,0 1013,2 91 -
17:59 14,7 13,1 1,0 West 10,0 1013,6 90 -
18:04 14,7 13,2 3,0 West 8,0 1013,6 91 -
18:09 14,7 13,3 5,0 WNW 6,0 1013,6 91 -
18:14 14,8 13,3 1,0 WNW 10,0 1013,2 91 -
18:19 14,8 13,3 1,0 NNW 5,0 1013,2 91 -
18:24 14,8 13,3 3,0 NW 6,0 1013,2 90 -
18:29 14,9 13,3 1,0 NE 11,0 1013,2 90 -
18:34 15,1 13,5 3,0 NW 5,0 1013,2 90 -
18:39 15,1 13,5 5,0 NW 11,0 1013,2 90 -
18:44 15,1 13,5 3,0 WNW 6,0 1013,2 90 -
18:49 15,1 13,4 13,0 NW 13,0 1013,2 89 -
18:54 15,1 13,3   Calm 8,0 1013,2 89 -
18:59 15,2 13,4 5,0 WNW 6,0 1013,2 89 -
19:04 15,1 13,2 5,0 WNW 8,0 1013,2 89 -
19:09 15,1 13,2 5,0 NW 8,0 1013,2 89 -
19:14 15,0 13,2 6,0 NW 8,0 1013,2 89 -
19:19 15,1 13,2 5,0 NW 8,0 1013,2 88 -
19:24 15,1 13,2 3,0 NW 5,0 1013,2 89 -
19:29 15,1 13,2 1,0 WNW 5,0 1013,2 89 -
19:34 15,2 13,3 3,0 NW 3,0 1013,2 89 -
19:39 15,1 13,2 3,0 NW 6,0 1013,2 89 -
19:44 15,1 13,2 1,0 NW 5,0 1013,2 89 -
19:49 15,2 13,3 5,0 NW 5,0 1013,2 89 -
19:54 15,2 13,3 6,0 West 6,0 1012,9 89 -
19:59 15,2 13,3 6,0 North 6,0 1012,9 89 -
20:04 15,1 13,3   Calm 5,0 1012,9 89 -
20:09 15,1 13,4 3,0 WNW 6,0 1012,9 89 -
20:14 15,1 13,4 3,0 West 8,0 1012,9 89 -
20:19 15,1 13,3 3,0 WNW 6,0 1012,9 89 -
20:24 15,0 13,3 3,0 West 6,0 1012,9 90 -
20:29 15,0 13,3 1,0 NNW 8,0 1012,9 90 -
20:34 15,0 13,3 1,0 NW 8,0 1012,9 90 -
20:39 15,0 13,3 1,0 NW 5,0 1012,9 90 -
20:44 15,0 13,4   Calm 3,0 1012,9 90 -
20:49 15,0 13,4   Calm 1,0 1012,9 90 -
20:54 15,0 13,4 5,0 NW 5,0 1012,9 90 -
20:59 14,9 13,3 3,0 West 6,0 1012,9 90 -
21:04 14,8 13,2   Calm 3,0 1012,9 90 -
21:09 14,8 13,3 3,0 NNW 5,0 1012,9 90 -
21:14 14,8 13,3 1,0 WNW 3,0 1012,9 91 -
21:19 14,8 13,3 3,0 NW 6,0 1012,9 91 -
21:24 14,8 13,3 1,0 NW 5,0 1012,9 91 -
21:29 14,8 13,3 1,0 NNW 5,0 1012,9 91 -
21:34 14,8 13,4 5,0 WNW 5,0 1012,9 91 -
21:39 14,8 13,4 1,0 NW 5,0 1012,9 91 -
21:44 14,8 13,4   Calm 3,0 1012,9 91 -
21:49 14,8 13,4   Calm 1,0 1012,5 91 -
21:54 14,8 13,4 5,0 NW 6,0 1012,9 91 -
21:59 14,8 13,4 1,0 NE 3,0 1012,9 92 -
22:04 14,8 13,4 1,0 East 5,0 1012,9 92 -
22:09 14,8 13,4 3,0 NNW 5,0 1012,9 92 -
22:14 14,8 13,4 1,0 NW 5,0 1012,9 92 -
22:19 14,8 13,4 1,0 NW 6,0 1012,9 92 -
22:24 14,8 13,4 3,0 East 6,0 1012,9 92 -
22:29 14,7 13,4   Calm 3,0 1012,9 92 -
22:34 14,7 13,4 1,0 NW 1,0 1012,9 92 -
22:38 14,7 13,4   Calm 3,0 1012,9 92 -
22:44 14,7 13,5 1,0 NNW 3,0 1012,9 92 -
22:49 14,7 13,4 3,0 North 3,0 1012,9 92 -
22:54 14,7 13,4 1,0 NNW 6,0 1012,5 92 -
22:59 14,7 13,5 1,0 East 3,0 1012,5 93 -
23:04 14,7 13,4 1,0 NW 5,0 1012,5 93 -
23:09 14,7 13,5   Calm   1012,9 93 -

Download your copy of this data-set  from WeatherUnderground

Our weather-data as stored at Weather Underground. Original script b Jim McMurry. Rewritten for template use Leuven-Template